| time (UTC) | temp C | wind direction | speed KPH | gust KPH | rain 1hr cm | rain 24hr cm | rain mn cm | humidity % | barometer mb |
| 20260504223559 | 18 | 0 | 3.2 | 11.3 | 0.00 | 0.00 | 0.00 | 41 | 1007.2 |
| 20260504223104 | 18 | 328 | 1.6 | 11.3 | 0.00 | 0.00 | 0.00 | 40 | 1007.2 |
| 20260504222559 | 19 | 336 | 1.6 | 11.3 | 0.00 | 0.00 | 0.00 | 40 | 1007.1 |
| 20260504222059 | 19 | 279 | 1.6 | 8.0 | 0.00 | 0.00 | 0.00 | 39 | 1007.1 |
| 20260504221608 | 19 | 291 | 1.6 | 8.0 | 0.00 | 0.00 | 0.00 | 38 | 1007.1 |
| 20260504221059 | 20 | 0 | 0.0 | 4.8 | 0.00 | 0.00 | 0.00 | 38 | 1007.0 |
| 20260504220600 | 20 | 0 | 0.0 | 4.8 | 0.00 | 0.00 | 0.00 | 37 | 1007.1 |
| 20260504220135 | 20 | 0 | 0.0 | 8.0 | 0.00 | 0.00 | 0.00 | 36 | 1007.0 |
| 20260504215600 | 20 | 279 | 0.0 | 8.0 | 0.00 | 0.00 | 0.00 | 35 | 1007.0 |
| 20260504215101 | 21 | 284 | 1.6 | 14.5 | 0.00 | 0.00 | 0.00 | 34 | 1007.1 |
| 20260504214600 | 21 | 0 | 1.6 | 14.5 | 0.00 | 0.00 | 0.00 | 34 | 1007.0 |
| 20260504214057 | 21 | 309 | 3.2 | 12.9 | 0.00 | 0.00 | 0.00 | 33 | 1007.0 |
| 20260504213557 | 21 | 295 | 3.2 | 12.9 | 0.00 | 0.00 | 0.00 | 32 | 1006.9 |
| 20260504213123 | 21 | 312 | 0.0 | 12.9 | 0.00 | 0.00 | 0.00 | 33 | 1006.8 |
| 20260504212602 | 21 | 304 | 3.2 | 8.0 | 0.00 | 0.00 | 0.00 | 32 | 1007.0 |
| 20260504212059 | 21 | 308 | 1.6 | 12.9 | 0.00 | 0.00 | 0.00 | 33 | 1007.0 |
| 20260504211557 | 21 | 0 | 1.6 | 12.9 | 0.00 | 0.00 | 0.00 | 32 | 1007.0 |
| 20260504211058 | 21 | 210 | 3.2 | 9.7 | 0.00 | 0.00 | 0.00 | 32 | 1006.9 |
| 20260504210558 | 21 | 279 | 0.0 | 9.7 | 0.00 | 0.00 | 0.00 | 32 | 1006.9 |
| 20260504205558 | 21 | 0 | 0.0 | 11.3 | 0.00 | 0.00 | 0.00 | 32 | 1006.9 |
| 20260504205059 | 21 | 304 | 0.0 | 16.1 | 0.00 | 0.00 | 0.00 | 32 | 1007.0 |
| 20260504204611 | 21 | 306 | 4.8 | 16.1 | 0.00 | 0.00 | 0.00 | 32 | 1007.0 |
| 20260504204057 | 21 | 302 | 4.8 | 12.9 | 0.00 | 0.00 | 0.00 | 31 | 1006.9 |
| 20260504203603 | 21 | 304 | 1.6 | 12.9 | 0.00 | 0.00 | 0.00 | 30 | 1007.0 |
| 20260504203056 | 21 | 0 | 3.2 | 12.9 | 0.00 | 0.00 | 0.00 | 31 | 1007.0 |
| 20260504202559 | 21 | 304 | 4.8 | 12.9 | 0.00 | 0.00 | 0.00 | 31 | 1006.9 |
| 20260504202100 | 21 | 300 | 1.6 | 19.3 | 0.00 | 0.00 | 0.00 | 32 | 1006.9 |
| 20260504201609 | 21 | 306 | 4.8 | 20.9 | 0.00 | 0.00 | 0.00 | 32 | 1006.8 |
| 20260504201057 | 21 | 302 | 9.7 | 20.9 | 0.00 | 0.00 | 0.00 | 31 | 1007.0 |
| 20260504200602 | 21 | 296 | 6.4 | 17.7 | 0.00 | 0.00 | 0.00 | 30 | 1007.0 |
| 20260504200108 | 21 | 0 | 1.6 | 17.7 | 0.00 | 0.00 | 0.00 | 31 | 1007.1 |
| 20260504195610 | 21 | 301 | 4.8 | 17.7 | 0.00 | 0.00 | 0.00 | 30 | 1007.1 |
| 20260504195058 | 21 | 0 | 1.6 | 14.5 | 0.00 | 0.00 | 0.00 | 32 | 1007.1 |
| 20260504194558 | 21 | 296 | 1.6 | 14.5 | 0.00 | 0.00 | 0.00 | 32 | 1007.0 |
| 20260504194101 | 21 | 274 | 1.6 | 14.5 | 0.00 | 0.00 | 0.00 | 31 | 1007.0 |
| 20260504193600 | 21 | 292 | 6.4 | 14.5 | 0.00 | 0.00 | 0.00 | 29 | 1007.3 |
| 20260504193102 | 21 | 296 | 3.2 | 12.9 | 0.00 | 0.00 | 0.00 | 30 | 1007.2 |
| 20260504192559 | 21 | 342 | 3.2 | 12.9 | 0.00 | 0.00 | 0.00 | 30 | 1007.1 |
| 20260504192104 | 21 | 0 | 3.2 | 24.1 | 0.00 | 0.00 | 0.00 | 30 | 1007.2 |
| 20260504191559 | 22 | 0 | 3.2 | 24.1 | 0.00 | 0.00 | 0.00 | 29 | 1007.2 |
| 20260504191102 | 22 | 305 | 4.8 | 16.1 | 0.00 | 0.00 | 0.00 | 29 | 1007.1 |
| 20260504190600 | 22 | 303 | 3.2 | 17.7 | 0.00 | 0.00 | 0.00 | 29 | 1007.2 |
| 20260504190100 | 22 | 281 | 3.2 | 17.7 | 0.00 | 0.00 | 0.00 | 29 | 1007.3 |
| 20260504185559 | 22 | 317 | 6.4 | 22.5 | 0.00 | 0.00 | 0.00 | 28 | 1007.3 |
| 20260504185100 | 21 | 5 | 4.8 | 22.5 | 0.00 | 0.00 | 0.00 | 28 | 1007.3 |
| 20260504184602 | 21 | 306 | 8.0 | 20.9 | 0.00 | 0.00 | 0.00 | 27 | 1007.5 |
| 20260504184059 | 22 | 306 | 9.7 | 20.9 | 0.00 | 0.00 | 0.00 | 27 | 1007.4 |
| 20260504183558 | 22 | 303 | 4.8 | 14.5 | 0.00 | 0.00 | 0.00 | 28 | 1007.6 |
| 20260504183105 | 22 | 272 | 3.2 | 12.9 | 0.00 | 0.00 | 0.00 | 29 | 1007.6 |
| 20260504182600 | 21 | 0 | 1.6 | 19.3 | 0.00 | 0.00 | 0.00 | 29 | 1007.4 |
| 20260504182058 | 22 | 289 | 3.2 | 19.3 | 0.00 | 0.00 | 0.00 | 27 | 1007.6 |
| 20260504181606 | 22 | 319 | 4.8 | 16.1 | 0.00 | 0.00 | 0.00 | 27 | 1007.6 |
| 20260504181058 | 22 | 304 | 4.8 | 16.1 | 0.00 | 0.00 | 0.00 | 27 | 1007.7 |
| 20260504180559 | 22 | 0 | 4.8 | 14.5 | 0.00 | 0.00 | 0.00 | 28 | 1007.7 |
| 20260504180100 | 21 | 296 | 0.0 | 17.7 | 0.00 | 0.00 | 0.00 | 30 | 1007.7 |
| 20260504175559 | 21 | 304 | 8.0 | 20.9 | 0.00 | 0.00 | 0.00 | 28 | 1007.9 |
| 20260504175059 | 21 | 300 | 6.4 | 20.9 | 0.00 | 0.00 | 0.00 | 28 | 1007.8 |
| 20260504174559 | 21 | 301 | 6.4 | 16.1 | 0.00 | 0.00 | 0.00 | 29 | 1008.1 |
| 20260504174100 | 21 | 297 | 3.2 | 17.7 | 0.00 | 0.00 | 0.00 | 29 | 1007.9 |
| 20260504173557 | 21 | 309 | 4.8 | 22.5 | 0.00 | 0.00 | 0.00 | 28 | 1008.0 |
| 20260504173100 | 21 | 307 | 3.2 | 22.5 | 0.00 | 0.00 | 0.00 | 30 | 1008.1 |
| 20260504172557 | 21 | 332 | 6.4 | 22.5 | 0.00 | 0.00 | 0.00 | 29 | 1008.2 |
| 20260504172101 | 21 | 267 | 6.4 | 19.3 | 0.00 | 0.00 | 0.00 | 31 | 1008.2 |
| 20260504171606 | 21 | 302 | 9.7 | 19.3 | 0.00 | 0.00 | 0.00 | 30 | 1008.0 |
| 20260504171100 | 21 | 360 | 4.8 | 22.5 | 0.00 | 0.00 | 0.00 | 31 | 1008.1 |
| 20260504170600 | 20 | 289 | 8.0 | 22.5 | 0.00 | 0.00 | 0.00 | 31 | 1008.3 |
| 20260504151059 | 17 | 298 | 8.0 | 24.1 | 0.00 | 0.00 | 0.00 | 36 | 1009.4 |
| 20260504150557 | 17 | 321 | 11.3 | 24.1 | 0.00 | 0.00 | 0.00 | 37 | 1009.5 |
| 20260504150104 | 18 | 306 | 8.0 | 20.9 | 0.00 | 0.00 | 0.00 | 35 | 1009.5 |
| 20260504141100 | 17 | 306 | 4.8 | 19.3 | 0.00 | 0.00 | 0.00 | 41 | 1009.6 |
| 20260504140559 | 16 | 315 | 1.6 | 9.7 | 0.00 | 0.00 | 0.00 | 42 | 1009.7 |
| 20260504130559 | 12 | 0 | 1.6 | 9.7 | 0.00 | 0.00 | 0.00 | 51 | 1010.5 |
| 20260504110558 | 5 | 0 | 0.0 | 1.6 | 0.00 | 0.00 | 0.00 | 71 | 1010.7 |
| 20260504110103 | 5 | 0 | 0.0 | 1.6 | 0.00 | 0.00 | 0.00 | 72 | 1010.6 |
| 20260504100559 | 5 | 0 | 0.0 | 1.6 | 0.00 | 0.00 | 0.00 | 72 | 1010.7 |
| 20260504100105 | 5 | 0 | 0.0 | 0.0 | 0.00 | 0.00 | 0.00 | 72 | 1010.7 |
| 20260504081600 | 6 | 0 | 0.0 | 0.0 | 0.00 | 0.00 | 0.00 | 70 | 1010.3 |
| 20260504081100 | 6 | 0 | 0.0 | 0.0 | 0.00 | 0.00 | 0.00 | 70 | 1010.3 |
| 20260504080557 | 6 | 0 | 0.0 | 0.0 | 0.00 | 0.00 | 0.00 | 69 | 1010.3 |
| 20260504080107 | 6 | 0 | 0.0 | 0.0 | 0.00 | 0.00 | 0.00 | 68 | 1010.3 |
| 20260504050600 | 5 | 0 | 0.0 | 0.0 | 0.00 | 0.00 | 0.00 | 72 | 1010.3 |
| 20260504050106 | 4 | 0 | 0.0 | 0.0 | 0.00 | 0.00 | 0.00 | 72 | 1010.4 |
| 20260504045557 | 4 | 0 | 0.0 | 0.0 | 0.00 | 0.00 | 0.00 | 72 | 1010.3 |
| 20260504045057 | 4 | 0 | 0.0 | 0.0 | 0.00 | 0.00 | 0.00 | 72 | 1010.3 |
| 20260504044601 | 4 | 0 | 0.0 | 0.0 | 0.00 | 0.00 | 0.00 | 72 | 1010.3 |
| 20260504044058 | 4 | 0 | 0.0 | 0.0 | 0.00 | 0.00 | 0.00 | 71 | 1010.4 |
| 20260504043558 | 4 | 0 | 0.0 | 0.0 | 0.00 | 0.00 | 0.00 | 71 | 1010.3 |
| 20260504043100 | 3 | 0 | 0.0 | 0.0 | 0.00 | 0.00 | 0.00 | 70 | 1010.4 |
| 20260504042601 | 3 | 0 | 0.0 | 0.0 | 0.00 | 0.00 | 0.00 | 69 | 1010.4 |
| 20260504042057 | 3 | 0 | 0.0 | 0.0 | 0.00 | 0.00 | 0.00 | 69 | 1010.4 |
| 20260504041558 | 3 | 0 | 0.0 | 1.6 | 0.00 | 0.00 | 0.00 | 69 | 1010.3 |
| 20260504041100 | 3 | 0 | 0.0 | 1.6 | 0.00 | 0.00 | 0.00 | 70 | 1010.4 |
| 20260504040557 | 3 | 0 | 0.0 | 1.6 | 0.00 | 0.00 | 0.00 | 70 | 1010.3 |
| 20260504040106 | 3 | 0 | 0.0 | 1.6 | 0.00 | 0.00 | 0.00 | 71 | 1010.2 |
| 20260504035558 | 3 | 0 | 0.0 | 3.2 | 0.00 | 0.00 | 0.00 | 71 | 1010.2 |
| 20260504035100 | 3 | 0 | 0.0 | 4.8 | 0.00 | 0.00 | 0.00 | 70 | 1010.1 |
| 20260504034559 | 3 | 0 | 0.0 | 4.8 | 0.00 | 0.00 | 0.00 | 71 | 1010.1 |
| 20260504034100 | 3 | 0 | 0.0 | 3.2 | 0.00 | 0.00 | 0.00 | 71 | 1010.0 |
| 20260504033558 | 3 | 0 | 0.0 | 1.6 | 0.00 | 0.00 | 0.00 | 72 | 1010.0 |
| 20260504033102 | 3 | 0 | 0.0 | 0.0 | 0.00 | 0.00 | 0.00 | 72 | 1010.0 |
| 20260504032600 | 3 | 0 | 0.0 | 0.0 | 0.00 | 0.00 | 0.00 | 72 | 1010.0 |
| 20260504032100 | 3 | 0 | 0.0 | 0.0 | 0.00 | 0.00 | 0.00 | 73 | 1010.0 |
| 20260504031602 | 3 | 0 | 0.0 | 0.0 | 0.00 | 0.00 | 0.00 | 73 | 1010.0 |
| 20260504031057 | 3 | 0 | 0.0 | 0.0 | 0.00 | 0.00 | 0.00 | 73 | 1009.9 |
| 20260504030600 | 3 | 0 | 0.0 | 0.0 | 0.00 | 0.00 | 0.00 | 72 | 1009.9 |
| 20260504030100 | 3 | 0 | 0.0 | 0.0 | 0.00 | 0.00 | 0.00 | 72 | 1009.8 |
| 20260504025600 | 3 | 0 | 0.0 | 0.0 | 0.00 | 0.00 | 0.00 | 72 | 1009.9 |
| 20260504025058 | 3 | 0 | 0.0 | 0.0 | 0.00 | 0.00 | 0.00 | 72 | 1009.8 |
| 20260504024601 | 3 | 0 | 0.0 | 0.0 | 0.00 | 0.00 | 0.00 | 72 | 1009.7 |
| 20260504024059 | 3 | 0 | 0.0 | 0.0 | 0.00 | 0.00 | 0.00 | 72 | 1009.8 |
| 20260504023558 | 3 | 0 | 0.0 | 0.0 | 0.00 | 0.00 | 0.00 | 72 | 1009.8 |
| 20260504023100 | 3 | 0 | 0.0 | 0.0 | 0.00 | 0.00 | 0.00 | 71 | 1009.7 |
| 20260504022558 | 3 | 0 | 0.0 | 0.0 | 0.00 | 0.00 | 0.00 | 71 | 1009.7 |
| 20260504022057 | 3 | 0 | 0.0 | 0.0 | 0.00 | 0.00 | 0.00 | 71 | 1009.6 |
| 20260504021600 | 3 | 0 | 0.0 | 0.0 | 0.00 | 0.00 | 0.00 | 71 | 1009.7 |
| 20260504021100 | 3 | 0 | 0.0 | 0.0 | 0.00 | 0.00 | 0.00 | 70 | 1009.6 |
| 20260504020557 | 3 | 0 | 0.0 | 0.0 | 0.00 | 0.00 | 0.00 | 69 | 1009.6 |
| 20260504020139 | 3 | 0 | 0.0 | 0.0 | 0.00 | 0.00 | 0.00 | 68 | 1009.6 |
| 20260504015558 | 4 | 0 | 0.0 | 0.0 | 0.00 | 0.00 | 0.00 | 68 | 1009.6 |
| 20260504015059 | 4 | 0 | 0.0 | 0.0 | 0.00 | 0.00 | 0.00 | 68 | 1009.5 |
| 20260504014605 | 4 | 0 | 0.0 | 0.0 | 0.00 | 0.00 | 0.00 | 68 | 1009.6 |
| 20260504014058 | 4 | 0 | 0.0 | 0.0 | 0.00 | 0.00 | 0.00 | 67 | 1009.6 |
| 20260504013558 | 4 | 0 | 0.0 | 0.0 | 0.00 | 0.00 | 0.00 | 66 | 1009.6 |
| 20260504013118 | 5 | 0 | 0.0 | 0.0 | 0.00 | 0.00 | 0.00 | 65 | 1009.4 |
| 20260504012559 | 5 | 0 | 0.0 | 0.0 | 0.00 | 0.00 | 0.00 | 65 | 1009.5 |
| 20260504012101 | 5 | 0 | 0.0 | 0.0 | 0.00 | 0.00 | 0.00 | 64 | 1009.4 |
| 20260504011600 | 5 | 0 | 0.0 | 0.0 | 0.00 | 0.00 | 0.00 | 63 | 1009.3 |
| 20260504011058 | 5 | 0 | 0.0 | 0.0 | 0.00 | 0.00 | 0.00 | 62 | 1009.3 |
| 20260504010557 | 6 | 0 | 0.0 | 0.0 | 0.00 | 0.00 | 0.00 | 62 | 1009.3 |
| 20260504010059 | 6 | 0 | 0.0 | 0.0 | 0.00 | 0.00 | 0.00 | 60 | 1009.2 |
| 20260504005559 | 6 | 0 | 0.0 | 0.0 | 0.00 | 0.00 | 0.00 | 57 | 1009.2 |
| 20260504005058 | 7 | 0 | 0.0 | 0.0 | 0.00 | 0.00 | 0.00 | 54 | 1009.1 |
| 20260504004635 | 7 | 0 | 0.0 | 0.0 | 0.00 | 0.00 | 0.00 | 54 | 1009.0 |
| 20260504004057 | 7 | 0 | 0.0 | 0.0 | 0.00 | 0.00 | 0.00 | 50 | 1009.0 |
| 20260504003559 | 7 | 0 | 0.0 | 0.0 | 0.00 | 0.00 | 0.00 | 49 | 1009.0 |
| 20260504003101 | 8 | 0 | 0.0 | 0.0 | 0.00 | 0.00 | 0.00 | 49 | 1008.9 |
| 20260504002558 | 8 | 0 | 0.0 | 1.6 | 0.00 | 0.00 | 0.00 | 48 | 1008.9 |
| 20260504002059 | 8 | 0 | 0.0 | 3.2 | 0.00 | 0.00 | 0.00 | 49 | 1008.8 |
| 20260504001623 | 9 | 0 | 0.0 | 6.4 | 0.00 | 0.00 | 0.00 | 49 | 1008.7 |
| 20260504001100 | 9 | 0 | 0.0 | 6.4 | 0.00 | 0.00 | 0.00 | 47 | 1008.7 |
| 20260504000559 | 9 | 300 | 1.6 | 8.0 | 0.00 | 0.00 | 0.00 | 43 | 1008.6 |
| 20260504000118 | 9 | 0 | 0.0 | 8.0 | 0.00 | 0.00 | 0.00 | 43 | 1008.5 |
| 20260503235601 | 9 | 300 | 3.2 | 8.0 | 0.00 | 0.00 | 0.00 | 42 | 1008.5 |
| 20260503235059 | 10 | 300 | 0.0 | 11.3 | 0.00 | 0.00 | 0.00 | 43 | 1008.5 |
| 20260503234605 | 10 | 0 | 1.6 | 12.9 | 0.00 | 0.00 | 0.00 | 42 | 1008.6 |
| 20260503234058 | 10 | 298 | 3.2 | 14.5 | 0.00 | 0.00 | 0.00 | 41 | 1008.5 |
| 20260503233558 | 10 | 306 | 4.8 | 14.5 | 0.00 | 0.00 | 0.00 | 41 | 1008.4 |
| 20260503233103 | 10 | 298 | 6.4 | 14.5 | 0.00 | 0.00 | 0.00 | 41 | 1008.4 |
| 20260503232557 | 10 | 0 | 4.8 | 11.3 | 0.00 | 0.00 | 0.00 | 41 | 1008.2 |
| 20260503232058 | 10 | 304 | 3.2 | 8.0 | 0.00 | 0.00 | 0.00 | 42 | 1008.3 |
| 20260503231559 | 10 | 290 | 3.2 | 11.3 | 0.00 | 0.00 | 0.00 | 40 | 1008.2 |
| 20260503231058 | 10 | 315 | 3.2 | 12.9 | 0.00 | 0.00 | 0.00 | 40 | 1008.2 |
| 20260503230559 | 10 | 310 | 4.8 | 12.9 | 0.00 | 0.00 | 0.00 | 40 | 1008.0 |
| 20260503230115 | 10 | 307 | 6.4 | 12.9 | 0.00 | 0.00 | 0.00 | 42 | 1008.1 |
| 20260503225558 | 10 | 301 | 3.2 | 8.0 | 0.00 | 0.00 | 0.00 | 41 | 1007.9 |
| 20260503225058 | 10 | 0 | 0.0 | 14.5 | 0.00 | 0.00 | 0.00 | 41 | 1007.9 |
| 20260503224606 | 10 | 311 | 6.4 | 14.5 | 0.00 | 0.00 | 0.00 | 40 | 1007.9 |
| 20260503224059 | 10 | 294 | 3.2 | 11.3 | 0.00 | 0.00 | 0.00 | 41 | 1007.9 |